Baker, OR

1:31 AM PST on December 14, 2017 (GMT -0800)
Baker City Municipal

Weather History for KBKE - March, 2013

Change the Weather History Date:

Saturday, March 2, 2013

  Actual Average Record
Temperature  
Mean Temperature 39 °F 34 °F  
Max Temperature 50 °F 46 °F 66 °F (1968)
Min Temperature 27 °F 22 °F 2 °F (1960)
Degree Days  
Heating Degree Days 26 31  
Month to date heating degree days 56 63  
Since 1 July heating degree days 5448 5583  
Cooling Degree Days 0 0  
Month to date cooling degree days 0 0  
Year to date cooling degree days 0 0  
Moisture  
Dew Point 34 °F    
Average Humidity 81    
Maximum Humidity 100    
Minimum Humidity 61    
Precipitation  
Precipitation T in 0.02 in 0.57 in (1998)
Month to date precipitation T 0.05  
Year to date precipitation 1.27 1.43  
Sea Level Pressure  
Sea Level Pressure 30.25 in    
Wind  
Wind Speed 5 mph (SE)    
Max Wind Speed 21 mph    
Max Gust Speed 24 mph    
Visibility 9 miles    
Events Rain    
T = Trace of Precipitation, MM = Missing Value Source: NWS Daily Summary

Daily Weather History Graph

Daily Weather History Graph

Search for Another Location

Airport or City:

Trip Planner

Search our weather history database for the weather conditions in past years. The results will help you decide how hot, cold, wet, or windy it might be!

Date:

Astronomy

Mar. 02, 2013 Rise Set
Actual Time 6:26 AM PST 5:40 PM PST
Civil Twilight 5:57 AM PST 6:10 PM PST
Nautical Twilight 5:23 AM PST 6:43 PM PST
Astronomical Twilight 4:49 AM PST 7:17 PM PST
Moon 11:41 PM PST (3/2) 8:43 AM PST (3/2)
Length of Visible Light 12h 12m
Length of Day
11h 14m
Waning Gibbous, 73% of the Moon is Illuminated
Mar 2
Waning Gibbous
Mar 4
Last Quarter
Mar 11
New
Mar 19
First Quarter
Mar 27
Full

Hourly Weather History & Observations

Time (PST) Temp. Windchill Dew Point Humidity Pressure Visibility Wind Dir Wind Speed Gust Speed Precip Events Conditions
12:53 AM 28.0 °F - 27.0 °F 96% 30.46 in 5.0 mi Calm Calm - N/A   Clear
1:53 AM 28.0 °F - 27.0 °F 96% 30.45 in 6.0 mi Calm Calm - N/A   Clear
2:53 AM 28.9 °F - 28.0 °F 96% 30.42 in 6.0 mi Calm Calm - N/A   Clear
3:53 AM 28.4 °F - 28.4 °F 100% 30.33 in 7.0 mi Calm Calm - N/A   Clear
4:53 AM 30.0 °F 26.5 °F 28.9 °F 96% 30.39 in 8.0 mi WNW 3.5 mph - N/A   Clear
5:53 AM 30.0 °F - 28.9 °F 96% 30.38 in 6.0 mi Calm Calm - N/A   Clear
6:53 AM 30.2 °F - 28.4 °F 93% 30.30 in 6.0 mi Calm Calm - N/A   Clear
7:53 AM 36.0 °F 33.3 °F 34.0 °F 93% 30.37 in 10.0 mi SW 3.5 mph - N/A   Clear
8:53 AM 41.0 °F 34.7 °F 37.9 °F 89% 30.35 in 10.0 mi ESE 10.4 mph - N/A   Clear
9:53 AM 43.0 °F 35.1 °F 37.9 °F 82% 30.33 in 10.0 mi East 17.3 mph - N/A   Clear
10:53 AM 45.0 °F 37.9 °F 37.0 °F 74% 30.30 in 10.0 mi East 16.1 mph 21.9 mph N/A   Clear
11:53 AM 46.0 °F 39.6 °F 37.0 °F 71% 30.26 in 10.0 mi East 15.0 mph - N/A   Clear
12:53 PM 48.0 °F - 37.0 °F 66% 30.22 in 10.0 mi East 16.1 mph - N/A   Clear
1:53 PM 50.0 °F - 37.0 °F 61% 30.17 in 10.0 mi East 12.7 mph - N/A   Clear
2:53 PM 48.9 °F - 37.0 °F 64% 30.16 in 10.0 mi East 11.5 mph - N/A   Partly Cloudy
3:53 PM 46.9 °F - 37.0 °F 68% 30.15 in 10.0 mi East 8.1 mph - N/A   Partly Cloudy
4:53 PM 43.0 °F 39.5 °F 37.9 °F 82% 30.14 in 10.0 mi SW 5.8 mph - N/A   Partly Cloudy
5:53 PM 41.0 °F 38.0 °F 36.0 °F 82% 30.14 in 10.0 mi WSW 4.6 mph - N/A   Partly Cloudy
6:53 PM 39.9 °F - 36.0 °F 86% 30.13 in 10.0 mi Calm Calm - N/A   Mostly Cloudy
7:53 PM 37.0 °F - 35.1 °F 93% 30.11 in 10.0 mi Calm Calm - N/A   Overcast
8:53 PM 36.0 °F 32.1 °F 33.1 °F 89% 30.11 in 10.0 mi SSW 4.6 mph - N/A   Overcast
9:53 PM 36.0 °F - 33.1 °F 89% 30.09 in 10.0 mi Calm Calm - 0.00 in Rain Light Rain
10:53 PM 37.0 °F - 34.0 °F 89% 30.08 in 9.0 mi Calm Calm - 0.00 in   Overcast
11:53 PM 37.9 °F - 35.1 °F 89% 30.06 in 9.0 mi Calm Calm - N/A   Overcast